Change the Weather History Date:

Monday, March 3, 2014

  Actual Average Record
Temperature  
Mean Temperature 8 °F -  
Max Temperature 10 °F 38 °F 66 °F (2008)
Min Temperature 5 °F 26 °F 3 °F (2003)
Degree Days  
Heating Degree Days 58    
Moisture  
Dew Point -2 °F    
Average Humidity 67    
Maximum Humidity 73    
Minimum Humidity 61    
Precipitation  
Precipitation 0.00 in - - ()
Sea Level Pressure  
Sea Level Pressure 30.43 in    
Wind  
Wind Speed 10 mph (North)    
Max Wind Speed 17 mph    
Max Gust Speed -    
Visibility 10 miles    
Events      
Averages and records for this station are not official NWS values.
T = Trace of Precipitation, MM = Missing Value Source: NWS Daily Summary

Daily Weather History Graph

Daily Weather History Graph

Search for Another Location

Airport or City:

Trip Planner

Search our weather history database for the weather conditions in past years. The results will help you decide how hot, cold, wet, or windy it might be!

Date:

Astronomy

Mar. 03, 2014 Rise Set
Actual Time 6:58 AM EST 6:19 PM EST
Civil Twilight 6:30 AM EST 6:47 PM EST
Nautical Twilight 5:58 AM EST 7:19 PM EST
Astronomical Twilight 5:26 AM EST 7:51 PM EST
Moon 8:03 AM EST 9:24 PM EST
Length of Visible Light 12h 16m
Length of Day
11h 21m
Waxing Crescent, 8% of the Moon is Illuminated
Mar 3
Waxing Crescent
Mar 8
First Quarter
Mar 16
Full
Mar 23
Last Quarter
Mar 30
New

Hourly Weather History & Observations

Time (EST) Temp. Windchill Dew Point Humidity Pressure Visibility Wind Dir Wind Speed Gust Speed Precip Events Conditions
12:53 AM 10.0 °F -4.5 °F 1.0 °F 67% 30.34 in 10.0 mi NNE 11.5 mph - N/A   Clear
1:53 AM 10.0 °F -1.9 °F 1.0 °F 67% 30.35 in 10.0 mi North 8.1 mph - N/A   Clear
2:53 AM 10.9 °F -2.6 °F 1.9 °F 67% 30.34 in 10.0 mi North 10.4 mph - N/A   Clear
3:53 AM 9.0 °F -9.0 °F -0.0 °F 67% 30.34 in 10.0 mi North 17.3 mph - N/A   Partly Cloudy
4:53 AM 8.1 °F -8.4 °F -0.0 °F 70% 30.36 in 10.0 mi NNE 13.8 mph - N/A   Clear
5:53 AM 7.0 °F -10.4 °F -0.9 °F 70% 30.39 in 10.0 mi NNE 15.0 mph - N/A   Clear
6:53 AM 6.1 °F -11.6 °F -0.9 °F 73% 30.39 in 10.0 mi NNE 15.0 mph - N/A   Scattered Clouds
7:53 AM 5.0 °F -10.8 °F -2.0 °F 73% 30.41 in 10.0 mi NNE 11.5 mph - N/A   Scattered Clouds
8:53 AM 7.0 °F -8.3 °F -2.0 °F 67% 30.44 in 10.0 mi NNE 11.5 mph - N/A   Scattered Clouds
9:20 AM 6.8 °F -9.3 °F -2.2 °F 67% 30.40 in 10.0 mi North 12.7 mph - N/A   Mostly Cloudy
9:53 AM 6.1 °F -9.5 °F -2.0 °F 69% 30.45 in 10.0 mi NNE 11.5 mph - N/A   Mostly Cloudy
10:53 AM 7.0 °F -8.3 °F -2.9 °F 64% 30.46 in 10.0 mi NNE 11.5 mph - N/A   Mostly Cloudy
11:00 AM 6.8 °F -8.6 °F -2.2 °F 67% 30.42 in 10.0 mi NNE 11.5 mph - N/A   Scattered Clouds
11:53 AM 8.1 °F -4.3 °F -2.9 °F 61% 30.48 in 10.0 mi North 8.1 mph - N/A   Clear
12:53 PM 7.0 °F -7.5 °F -0.9 °F 70% 30.48 in 10.0 mi North 10.4 mph - N/A   Mostly Cloudy
1:29 PM 8.6 °F -3.7 °F -2.2 °F 62% 30.43 in 10.0 mi NNW 8.1 mph - N/A   Partly Cloudy
1:53 PM 8.1 °F -4.3 °F -2.9 °F 61% 30.48 in 10.0 mi North 8.1 mph - N/A   Partly Cloudy
2:53 PM 8.1 °F -3.2 °F -2.0 °F 64% 30.47 in 10.0 mi NNW 6.9 mph - N/A   Clear
3:53 PM 8.1 °F -4.3 °F -0.9 °F 67% 30.48 in 10.0 mi NNW 8.1 mph - N/A   Clear
4:53 PM 8.1 °F -3.2 °F -2.9 °F 61% 30.48 in 10.0 mi North 6.9 mph - N/A   Clear
5:53 PM 7.0 °F -4.5 °F -2.9 °F 64% 30.48 in 10.0 mi NNW 6.9 mph - N/A   Clear
6:53 PM 6.1 °F -2.8 °F -2.9 °F 67% 30.49 in 10.0 mi North 4.6 mph - N/A   Clear
7:53 PM 5.0 °F -4.1 °F -4.0 °F 66% 30.48 in 10.0 mi NNE 4.6 mph - N/A   Clear
8:53 PM 5.0 °F -2.1 °F -2.9 °F 70% 30.47 in 10.0 mi ENE 3.5 mph - N/A   Clear
9:53 PM 5.0 °F -4.1 °F -2.9 °F 70% 30.46 in 10.0 mi ESE 4.6 mph - N/A   Clear
10:53 PM 6.1 °F - -2.9 °F 67% 30.46 in 10.0 mi Calm Calm - N/A   Clear
11:53 PM 5.0 °F -5.6 °F -2.9 °F 70% 30.44 in 10.0 mi SSE 5.8 mph - N/A   Clear